This is the latest recevied weather packets stored in our database for station/object OH2HCY-3. If no packets are shown the sender has not sent any weather packets the latest 10 day(s).
| Time | Temp. | Humidity | Pressure | Rain* | Wind** | Luminosity | Snow |
|---|---|---|---|---|---|---|---|
| 1787561962 | 16.11° C | 69% | 1011.9 hPa | - | - | - | - |
| 1787560762 | 15.56° C | 71% | 1012 hPa | - | - | - | - |
| 1787559667 | 15.56° C | 71% | 1011.9 hPa | - | - | - | - |
| 1787558546 | 15° C | 70% | 1011.7 hPa | - | - | - | - |
| 1787557572 | 15.56° C | 69% | 1011.5 hPa | - | - | - | - |
| 1787556572 | 15° C | 72% | 1011.4 hPa | - | - | - | - |
| 1787555487 | 15° C | 72% | 1011.3 hPa | - | - | - | - |
| 1787554337 | 15° C | 72% | 1011.2 hPa | - | - | - | - |
| 1787553187 | 15° C | 72% | 1011 hPa | - | - | - | - |
| 1787552122 | 14.44° C | 75% | 1011 hPa | - | - | - | - |
| 1787551160 | 13.89° C | 76% | 1011 hPa | - | - | - | - |
| 1787550077 | 13.89° C | 78% | 1010.9 hPa | - | - | - | - |
| 1787548967 | 13.33° C | 79% | 1010.7 hPa | - | - | - | - |
| 1787547897 | 13.33° C | 80% | 1010.7 hPa | - | - | - | - |
| 1787546797 | 13.33° C | 81% | 1010.5 hPa | - | - | - | - |
| 1787545667 | 12.78° C | 82% | 1010.5 hPa | - | - | - | - |
| 1787544711 | 12.78° C | 83% | 1010.3 hPa | - | - | - | - |
| 1787543617 | 12.78° C | 84% | 1010.2 hPa | - | - | - | - |
| 1787542524 | 12.78° C | 85% | 1010 hPa | - | - | - | - |
| 1787541402 | 12.22° C | 86% | 1009.8 hPa | - | - | - | - |
| 1787540306 | 12.22° C | 88% | 1009.7 hPa | - | - | - | - |
| 1787540302 | 12.22° C | 88% | 1009.7 hPa | - | - | - | - |
| 1787539292 | 12.22° C | 89% | 1009.5 hPa | - | - | - | - |
| 1787538252 | 12.22° C | 89% | 1009.4 hPa | - | - | - | - |
| 1787537294 | 12.22° C | 88% | 1009.4 hPa | - | - | - | - |
* Rain since midnight (hover to see other rain measurements)
** Current wind speed in m/s (hover to see current wind gust speed)